This is the latest recevied weather packets stored in our database for station/object KU9TRY. If no packets are shown the sender has not sent any weather packets the latest 10 day(s).
| Time | Temp. | Humidity | Pressure | Rain* | Wind** | Luminosity | Snow |
|---|---|---|---|---|---|---|---|
| 1777562377 | 16.11° C | 44% | 1017 hPa | 0 mm | - | 844 W/m² | - |
| 1777562073 | 15.56° C | 41% | 1017.4 hPa | 0 mm | - | 830 W/m² | - |
| 1777561771 | 15.56° C | 42% | 1017.1 hPa | 0 mm | - | 810 W/m² | - |
| 1777561466 | 16.11° C | 41% | 1017.1 hPa | 0 mm | - | 800 W/m² | - |
| 1777561162 | 15.56° C | 40% | 1017.1 hPa | 0 mm | - | 787 W/m² | - |
| 1777560862 | 16.11° C | 39% | 1017.5 hPa | 0 mm | - | 771 W/m² | - |
| 1777560560 | 15.56° C | 44% | 1017.4 hPa | 0 mm | - | 757 W/m² | - |
| 1777560257 | 15.56° C | 40% | 1017 hPa | 0 mm | - | 742 W/m² | - |
| 1777559955 | 15° C | 43% | 1017.1 hPa | 0 mm | - | 725 W/m² | - |
| 1777559649 | 15° C | 43% | 1017.2 hPa | 0 mm | - | 707 W/m² | - |
| 1777559348 | 15° C | 41% | 1017 hPa | 0 mm | - | 689 W/m² | - |
| 1777559042 | 15° C | 41% | 1017 hPa | 0 mm | - | 671 W/m² | - |
| 1777558738 | 14.44° C | 41% | 1016.9 hPa | 0 mm | - | 654 W/m² | - |
| 1777558434 | 14.44° C | 42% | 1017 hPa | 0 mm | - | 635 W/m² | - |
| 1777558131 | 14.44° C | 45% | 1017 hPa | 0 mm | - | 615 W/m² | - |
| 1777557827 | 14.44° C | 41% | 1017 hPa | 0 mm | - | 596 W/m² | - |
| 1777557524 | 13.89° C | 45% | 1017 hPa | 0 mm | - | 574 W/m² | - |
| 1777557221 | 13.89° C | 43% | 1016.9 hPa | 0 mm | - | 215 W/m² | - |
| 1777556917 | 13.89° C | 44% | 1017 hPa | 0 mm | - | 537 W/m² | - |
| 1777556612 | 13.33° C | 49% | 1016.8 hPa | 0 mm | - | 63 W/m² | - |
| 1777556307 | 13.33° C | 45% | 1016.8 hPa | 0 mm | - | 70 W/m² | - |
| 1777556004 | 12.78° C | 46% | 1016.9 hPa | 0 mm | - | 61 W/m² | - |
| 1777555704 | 13.33° C | 46% | 1016.9 hPa | 0 mm | - | 62 W/m² | - |
| 1777555401 | 13.33° C | 50% | 1017 hPa | 0 mm | - | 59 W/m² | - |
| 1777555097 | 12.78° C | 53% | 1017.1 hPa | 0 mm | - | 59 W/m² | - |
* Rain latest hour (hover to see other rain measurements)
** Current wind speed in m/s (hover to see current wind gust speed)